Terminal Aerodrome Forecast
Issued by NWS

Home | Current Version | Previous Version | Text Only | Print | Product List | Glossary On
Versions: 1 2 3 4 5 6 7 8 9 10 11 12 13 14 15 16 17 18 19 20 21 22 23
913
FTUS42 KJAX 220906 AAA
TAFVQQ
TAF AMD
KVQQ 220906Z 2209/2306 00000KT 4SM BR SCT005
      TEMPO 2209/2211 1/2SM FG OVC002
     FM221300 13004KT P6SM SCT025
     FM221900 13008KT P6SM SCT040 SCT250
     FM230000 00000KT P6SM BKN200=

USA.gov is the U.S. government's official web portal to all federal, state and local government web resources and services.